Location: Unspecified
(53.6186°N, 1.3184°W)
Time: 14:15:21
(UTC+01:00)

ISS - Pass Details

Date: 13 October 2017
Orbit: 401 x 408 km, 51.6° (Epoch: 18 October)

Event Time Altitude Azimuth Distance (km) Brightness Sun altitude
Rises 19:03:20 0° 278° (W) 2,325 2.1 -8.2°
Reaches altitude 10° 19:05:39 10° 264° (W) 1,464 0.7 -8.6°
Maximum altitude 19:08:21 24° 209° (SSW) 896 -1.7 -9.0°
Drops below altitude 10° 19:11:03 10° 153° (SSE) 1,462 -1.3 -9.4°
Enters shadow 19:12:38 - 142° (SE) 2,044 -0.6 -9.6°
